Location: Natural Bridges National Monument
(37.6093°N, 109.9767°W)
Time: 20:36:33
(UTC-06:00)

Amateur Radio Satellites - All Passes

Search period start: 28 July 2014 20:06
Search period end: 29 July 2014 20:06
Location: Natural Bridges National Monument, 37.6093°N, 109.9767°W

Satellite Date Start Highest point End Downlink Frequencies (MHz)
Time Altitude Azimuth
RS-15 28 Jul 20:32:55 20:40:29 20° 25° (NNE) 20:48:09 29.354 - 29.394 USB, Beacon 29.352 USB
SO-50 28 Jul 20:37:00 20:38:51 12° 41° (NE) 20:40:42 436.795 FM
MaSat-1 28 Jul 20:41:14 20:42:42 12° 98° (E) 20:44:13 437.345 MHz
HO-68 28 Jul 21:28:30 21:35:40 80° 72° (ENE) 21:42:51 435.675 MHz FM
UKube-1 28 Jul 21:30:10 21:34:22 48° 73° (ENE) 21:38:34 145.840 MHz, 145.915 MHz
STRAND 1 28 Jul 21:30:51 21:34:08 18° 296° (WNW) 21:37:26 ?
MaSat-1 28 Jul 22:15:20 22:19:14 52° 298° (WNW) 22:23:48 437.345 MHz
SO-50 28 Jul 22:15:21 22:20:08 82° 59° (ENE) 22:24:58 436.795 FM
Oscar 11 28 Jul 22:15:30 22:19:47 75° 76° (ENE) 22:24:06 145.825 FM, Beacon 2401.500 USB
FUNcube-1 28 Jul 22:36:36 22:40:44 44° 73° (ENE) 22:44:47 145.950 - 145.970 MHz USB
UOSAT-12 28 Jul 22:38:49 22:41:15 14° 42° (NE) 22:43:41 437.025 FM, 437.400 FM
RS-15 28 Jul 22:44:56 22:55:51 60° 53° (NE) 23:07:06 29.354 - 29.394 USB, Beacon 29.352 USB
UKube-1 28 Jul 23:08:40 23:10:48 13° 267° (W) 23:12:57 145.840 MHz, 145.915 MHz
HO-68 28 Jul 23:19:46 23:24:02 17° 269° (W) 23:28:19 435.675 MHz FM
ISS 29 Jul 00:00:56 00:04:16 86° 138° (SE) 00:07:38 145.800 FM
FUNcube-1 29 Jul 00:15:06 00:17:19 14° 267° (W) 00:19:32 145.950 - 145.970 MHz USB
UOSAT-12 29 Jul 00:17:17 00:22:02 83° 240° (WSW) 00:26:41 437.025 FM, 437.400 FM
Sapphire 29 Jul 00:24:39 00:28:58 25° 107° (ESE) 00:33:18 437.095 MHz 1200 baud AX-25 AFSK
PCSat 29 Jul 00:56:56 01:02:10 54° 113° (ESE) 01:07:27 145.825 MHz
RS-15 29 Jul 00:57:54 01:07:40 38° 253° (WSW) 01:17:49 29.354 - 29.394 USB, Beacon 29.352 USB
Oscar 10/S400 29 Jul 01:35:11 02:10:15 70° 186° (S) 11:34:14 145.825 - 145.975 CW/USB, Beacon 145.810 USB
ISS 29 Jul 01:39:15 01:41:23 16° 337° (NNW) 01:43:31 145.800 FM
Sapphire 29 Jul 02:07:02 02:12:07 41° 303° (WNW) 02:17:14 437.095 MHz 1200 baud AX-25 AFSK
Oscar 19 29 Jul 02:32:11 02:37:08 45° 99° (E) 02:42:04 437.125 CW, 437.150 USB
PCSat 29 Jul 02:41:49 02:45:55 22° 310° (NW) 02:50:02 145.825 MHz
AO-Echo 29 Jul 02:49:09 02:53:32 29° 96° (E) 02:57:46 ?
Oscar 16 29 Jul 03:00:25 03:05:36 89° 104° (ESE) 03:10:47 437.025 USB, Beacon 2401.1428
OPAL 29 Jul 03:05:46 03:07:47 13° 59° (ENE) 03:09:48 ?
JAS-1B 29 Jul 03:20:21 03:29:01 43° 95° (E) 03:36:25 435.800 - 435.900 CW/SSB
ITAMSAT 1 29 Jul 03:21:23 03:26:30 60° 101° (E) 03:31:35 435.822 SSB
TMSAT-1 29 Jul 03:39:24 03:43:47 26° 95° (E) 03:48:08 436.925 FM
AO-27 29 Jul 03:40:34 03:45:47 87° 284° (WNW) 03:50:57 436.795 MHz FM
Uribyol 2 29 Jul 03:40:48 03:45:59 83° 285° (WNW) 03:51:07 436.500 FM
Gurwin Techsat 1B 29 Jul 04:03:10 04:08:27 62° 101° (E) 04:13:41 435.225 FM
Oscar 19 29 Jul 04:12:22 04:16:08 21° 295° (WNW) 04:19:53 437.125 CW, 437.150 USB
AO-Echo 29 Jul 04:27:56 04:32:12 28° 292° (WNW) 04:36:20 ?
OPAL 29 Jul 04:41:06 04:46:01 74° 255° (WSW) 04:50:59 ?
AO-7 29 Jul 04:41:40 04:48:29 27° 96° (E) 04:55:14 29.400 - 29.500 MHz
Oscar 16 29 Jul 04:43:06 04:44:10 11° 300° (WNW) 04:45:14 437.025 USB, Beacon 2401.1428
Uosat F 29 Jul 04:46:21 04:50:21 24° 95° (E) 04:54:19 435.120 FM
ISS 29 Jul 04:56:04 04:57:20 12° 18° (NNE) 04:58:36 145.800 FM
ITAMSAT 1 29 Jul 05:02:26 05:05:28 16° 297° (WNW) 05:08:29 435.822 SSB
JAS-1B 29 Jul 05:10:48 05:19:23 43° 296° (WNW) 05:26:51 435.800 - 435.900 CW/SSB
TMSAT-1 29 Jul 05:18:56 05:23:43 35° 291° (WNW) 05:28:28 436.925 FM
KITSAT 1 29 Jul 05:19:18 05:24:55 21° 103° (ESE) 05:30:32 435.175 FM
PANSAT 29 Jul 05:23:35 05:25:56 16° 167° (SSE) 05:28:18 not established
AO-27 29 Jul 05:24:12 05:24:27 10° 301° (WNW) 05:24:42 436.795 MHz FM
Gurwin Techsat 1B 29 Jul 05:44:44 05:47:51 16° 297° (WNW) 05:50:58 435.225 FM
Uosat F 29 Jul 06:24:38 06:29:10 35° 290° (WNW) 06:33:41 435.120 FM
ISS 29 Jul 06:31:26 06:34:43 48° 36° (NE) 06:37:59 145.800 FM
AO-7 29 Jul 06:33:30 06:41:39 61° 293° (WNW) 06:49:45 29.400 - 29.500 MHz
MaSat-1 29 Jul 06:35:38 06:40:07 27° 56° (NE) 06:44:25 437.345 MHz
JAS-2 29 Jul 06:50:06 06:54:59 27° 94° (E) 06:59:29 435.800 - 435.900 CW/SSB, 435.910 FM
PANSAT 29 Jul 07:02:35 07:05:33 21° 180° (S) 07:08:30 not established
Hamsat 29 Jul 07:04:17 07:08:30 52° 100° (E) 07:12:43 145.90 MHz
STRAND 1 29 Jul 07:04:21 07:09:26 63° 74° (ENE) 07:14:31 ?
KITSAT 1 29 Jul 07:11:20 07:19:26 76° 300° (WNW) 07:27:34 435.175 FM
Saudisat 1A 29 Jul 07:41:25 07:45:38 46° 116° (ESE) 07:49:52 436.775 MHz
ISS 29 Jul 08:09:03 08:11:08 16° 231° (SW) 08:13:12 145.800 FM
MaSat-1 29 Jul 08:12:43 08:17:33 38° 254° (WSW) 08:22:05 437.345 MHz
AO-7 29 Jul 08:29:47 08:32:43 12° 313° (NW) 08:35:39 29.400 - 29.500 MHz
JAS-2 29 Jul 08:34:54 08:40:09 34° 293° (WNW) 08:44:57 435.800 - 435.900 CW/SSB, 435.910 FM
Hamsat 29 Jul 08:42:02 08:44:00 13° 294° (WNW) 08:45:59 145.90 MHz
PANSAT 29 Jul 08:42:51 08:45:09 15° 193° (SSW) 08:47:26 not established
STRAND 1 29 Jul 08:46:28 08:49:00 14° 268° (W) 08:51:32 ?
SO-67 29 Jul 08:56:39 08:59:54 38° 286° (WNW) 09:03:08 435.3500 MHz FM
HO-68 29 Jul 09:00:39 09:04:35 15° 91° (E) 09:08:30 435.675 MHz FM
KITSAT 1 29 Jul 09:10:47 09:16:15 19° 322° (NW) 09:21:44 435.175 FM
Sapphire 29 Jul 09:14:35 09:17:53 16° 46° (NE) 09:21:11 437.095 MHz 1200 baud AX-25 AFSK
Saudisat 1A 29 Jul 09:22:16 09:25:27 19° 313° (NW) 09:28:38 436.775 MHz
PCSat 29 Jul 09:47:01 09:51:47 30° 53° (NE) 09:56:29 145.825 MHz
Oscar 11 29 Jul 10:06:22 10:09:01 16° 93° (E) 10:11:40 145.825 FM, Beacon 2401.500 USB
HO-68 29 Jul 10:45:50 10:53:01 84° 287° (WNW) 11:00:09 435.675 MHz FM
UKube-1 29 Jul 10:56:19 11:00:39 68° 285° (WNW) 11:04:56 145.840 MHz, 145.915 MHz
Sapphire 29 Jul 10:56:30 11:01:56 78° 245° (WSW) 11:07:20 437.095 MHz 1200 baud AX-25 AFSK
PCSat 29 Jul 11:30:17 11:35:12 36° 250° (WSW) 11:40:05 145.825 MHz
Oscar 11 29 Jul 11:41:17 11:45:21 40° 288° (WNW) 11:49:23 145.825 FM, Beacon 2401.500 USB
FUNcube-1 29 Jul 12:03:40 12:07:48 62° 285° (WNW) 12:11:58 145.950 - 145.970 MHz USB
SO-50 29 Jul 12:28:50 12:32:59 40° 115° (ESE) 12:37:14 436.795 FM
HO-68 29 Jul 12:35:54 12:39:38 15° 305° (NW) 12:43:22 435.675 MHz FM
Oscar 16 29 Jul 12:40:00 12:41:58 12° 61° (ENE) 12:43:57 437.025 USB, Beacon 2401.1428
RS-15 29 Jul 13:06:22 13:16:41 45° 109° (ESE) 13:26:44 29.354 - 29.394 USB, Beacon 29.352 USB
KITSAT 1 29 Jul 13:14:30 13:16:23 11° 25° (NNE) 13:18:15 435.175 FM
Uribyol 2 29 Jul 13:20:21 13:23:05 15° 62° (ENE) 13:25:48 436.500 FM
AO-27 29 Jul 13:20:30 13:23:07 14° 62° (ENE) 13:25:44 436.795 MHz FM
Oscar 19 29 Jul 13:47:13 13:52:10 53° 73° (ENE) 13:57:08 437.125 CW, 437.150 USB
AO-Echo 29 Jul 13:59:42 14:04:26 34° 69° (ENE) 14:09:10 ?
JAS-1B 29 Jul 14:00:52 14:08:40 35° 61° (ENE) 14:17:07 435.800 - 435.900 CW/SSB
SO-50 29 Jul 14:10:15 14:13:42 21° 312° (NW) 14:17:13 436.795 FM
Oscar 16 29 Jul 14:15:31 14:20:38 77° 257° (WSW) 14:25:46 437.025 USB, Beacon 2401.1428
UOSAT-12 29 Jul 14:26:37 14:30:59 46° 115° (ESE) 14:35:28 437.025 FM, 437.400 FM
ITAMSAT 1 29 Jul 14:37:25 14:42:37 75° 75° (ENE) 14:47:50 435.822 SSB
Uribyol 2 29 Jul 14:56:48 15:01:58 67° 258° (WSW) 15:07:08 436.500 FM
AO-27 29 Jul 14:56:48 15:02:00 70° 258° (WSW) 15:07:14 436.795 MHz FM
TMSAT-1 29 Jul 14:58:15 15:02:59 34° 69° (ENE) 15:07:43 436.925 FM
KITSAT 1 29 Jul 15:07:00 15:14:29 39° 51° (NE) 15:21:54 435.175 FM
RS-15 29 Jul 15:18:07 15:28:49 51° 310° (NW) 15:39:24 29.354 - 29.394 USB, Beacon 29.352 USB
Gurwin Techsat 1B 29 Jul 15:22:20 15:27:38 81° 75° (ENE) 15:32:58 435.225 FM
Oscar 19 29 Jul 15:28:43 15:31:48 16° 268° (W) 15:34:54 437.125 CW, 437.150 USB
AO-Echo 29 Jul 15:38:39 15:43:09 28° 265° (W) 15:47:41 ?
AO-7 29 Jul 15:38:40 15:45:51 34° 60° (ENE) 15:53:03 29.400 - 29.500 MHz
JAS-1B 29 Jul 15:49:52 15:58:28 61° 261° (W) 16:08:10 435.800 - 435.900 CW/SSB
Uosat F 29 Jul 15:57:49 16:02:03 28° 68° (ENE) 16:06:17 435.120 FM
UOSAT-12 29 Jul 16:07:54 16:11:22 21° 313° (NW) 16:14:54 437.025 FM, 437.400 FM
Saudisat 1A 29 Jul 16:10:18 16:13:52 23° 49° (NE) 16:17:24 436.775 MHz
ITAMSAT 1 29 Jul 16:21:01 16:22:37 11° 270° (W) 16:24:12 435.822 SSB
TMSAT-1 29 Jul 16:38:27 16:42:53 27° 264° (W) 16:47:21 436.925 FM
OPAL 29 Jul 16:52:58 16:57:34 33° 100° (E) 17:02:11 ?
JAS-2 29 Jul 17:01:11 17:05:09 15° 59° (ENE) 17:08:58 435.800 - 435.900 CW/SSB, 435.910 FM
KITSAT 1 29 Jul 17:02:21 17:09:57 47° 250° (WSW) 17:17:30 435.175 FM
Gurwin Techsat 1B 29 Jul 17:07:03 17:08:10 11° 271° (W) 17:09:16 435.225 FM
AO-7 29 Jul 17:30:08 17:38:14 54° 258° (WSW) 17:46:24 29.400 - 29.500 MHz
Uosat F 29 Jul 17:36:16 17:40:42 31° 263° (W) 17:45:10 435.120 FM
RS-15 29 Jul 17:37:45 17:44:40 18° 340° (NNW) 17:51:37 29.354 - 29.394 USB, Beacon 29.352 USB
Saudisat 1A 29 Jul 17:49:30 17:53:31 35° 246° (WSW) 17:57:29 436.775 MHz
Hamsat 29 Jul 17:56:14 17:59:49 28° 71° (ENE) 18:03:25 145.90 MHz
OPAL 29 Jul 18:32:04 18:36:17 27° 294° (WNW) 18:40:32 ?
JAS-2 29 Jul 18:41:20 18:49:10 79° 74° (ENE) 18:56:31 435.800 - 435.900 CW/SSB, 435.910 FM
STRAND 1 29 Jul 19:17:38 19:21:46 24° 95° (E) 19:25:51 ?
SO-67 29 Jul 19:27:41 19:30:59 44° 75° (ENE) 19:34:18 435.3500 MHz FM
HO-68 29 Jul 19:31:24 19:32:34 10° 51° (NE) 19:33:43 435.675 MHz FM
Hamsat 29 Jul 19:32:40 19:35:47 20° 266° (W) 19:38:55 145.90 MHz
